This is the latest recevied weather packets stored in our database for station/object IU5JAE-13. If no packets are shown the sender has not sent any weather packets the latest 1 day(s).
| Time | Temp. | Humidity | Pressure | Rain* | Wind** | Luminosity | Snow |
|---|---|---|---|---|---|---|---|
| 1778004333 | 14.44° C | 97% | 1012.5 hPa | 0 mm | 0.45 m/s, 164° | 5 W/m² | - |
| 1778003731 | 14.44° C | 96% | 1012.4 hPa | 0 mm | 0.45 m/s, 184° | 6 W/m² | - |
| 1778003128 | 15° C | 96% | 1012.5 hPa | 0 mm | 0.45 m/s, 110° | 14 W/m² | - |
| 1778002526 | 15° C | 96% | 1012.5 hPa | 0 mm | 0 m/s | 19 W/m² | - |
| 1778001923 | 15° C | 95% | 1012.5 hPa | 0 mm | 0.89 m/s, 171° | 16 W/m² | - |
| 1778001321 | 15° C | 95% | 1012.5 hPa | 0 mm | 2.24 m/s, 176° | 29 W/m² | - |
| 1778000719 | 15.56° C | 94% | 1012.4 hPa | 0 mm | 0.89 m/s, 147° | 22 W/m² | - |
| 1778000116 | 15.56° C | 94% | 1012.5 hPa | 0 mm | 0.45 m/s, 160° | 47 W/m² | - |
| 1777999534 | 15.56° C | 94% | 1012.4 hPa | 0 mm | 0.89 m/s, 143° | 39 W/m² | - |
| 1777998931 | 15.56° C | 92% | 1012.4 hPa | 0 mm | 0.89 m/s, 98° | 62 W/m² | - |
| 1777998329 | 15.56° C | 92% | 1012.4 hPa | 0 mm | 0.89 m/s, 151° | 81 W/m² | - |
| 1777997727 | 16.11° C | 91% | 1012.3 hPa | 0 mm | 0.89 m/s, 112° | 51 W/m² | - |
| 1777997124 | 16.11° C | 91% | 1012.5 hPa | 0 mm | 1.34 m/s, 106° | 67 W/m² | - |
| 1777996522 | 16.67° C | 90% | 1012.5 hPa | 0 mm | 0.89 m/s, 101° | 108 W/m² | - |
| 1777995919 | 16.67° C | 90% | 1012.6 hPa | 0 mm | 0.45 m/s, 112° | 104 W/m² | - |
| 1777995317 | 16.67° C | 91% | 1012.4 hPa | 0 mm | 0.89 m/s, 90° | 124 W/m² | - |
| 1777994735 | 16.67° C | 90% | 1012.4 hPa | 0 mm | 0.89 m/s, 78° | 103 W/m² | - |
| 1777994132 | 16.11° C | 91% | 1012.5 hPa | 0 mm | 0.45 m/s, 83° | 158 W/m² | - |
| 1777993530 | 16.11° C | 92% | 1012.6 hPa | 0 mm | 0.89 m/s, 142° | 135 W/m² | - |
| 1777992927 | 16.11° C | 93% | 1012.6 hPa | 0 mm | 1.34 m/s, 170° | 132 W/m² | - |
| 1777992325 | 16.11° C | 93% | 1012.6 hPa | 0 mm | 0.45 m/s, 116° | 137 W/m² | - |
| 1777991723 | 16.11° C | 93% | 1012.7 hPa | 0 mm | 0.45 m/s, 90° | 88 W/m² | - |
| 1777991120 | 16.11° C | 94% | 1012.7 hPa | 0 mm | 0.89 m/s, 99° | 137 W/m² | - |
| 1777990518 | 16.11° C | 95% | 1012.7 hPa | 0 mm | 0.45 m/s, 72° | 125 W/m² | - |
| 1777989915 | 16.11° C | 95% | 1012.6 hPa | 0 mm | 0.45 m/s, 122° | 99 W/m² | - |
* Rain latest hour (hover to see other rain measurements)
** Current wind speed in m/s (hover to see current wind gust speed)